Tracking 35334 objects as of 13-Sep-2026
HD Live streaming from Space Station
objects crossing your sky now

SL-4 R/B


SL-4 R/B is no longer on orbit


NORAD ID: 11452
Int'l Code: 1979-066B
Launch date: July 13, 1979
Source: Commonwealth of Independent States (former USSR) (CIS)
Launch site: PLESETSK MISSILE AND SPACE COMPLEX (PKMTR)
Decay date: 1979-07-17

Note: This is a ROCKET BODY
Your satellite tracking list
Your tracking list is empty




NASA's NSSDC Master Catalog

Two Line Element Set (TLE):
1 11452U 79066  B 79197.11480271  .05395503 +01124-6 +05198-4 0  9999
2 11452 081.3587 077.6238 0008798 346.6715 013.4328 16.33689880000074
Source of the keplerian elements: AFSPC